This is the latest recevied weather packets stored in our database for station/object W1LBM. If no packets are shown the sender has not sent any weather packets the latest 10 day(s).
| Time | Temp. | Humidity | Pressure | Rain* | Wind** | Luminosity | Snow |
|---|---|---|---|---|---|---|---|
| 1777464879 | 8.33° C | 84% | 1020.7 hPa | 0 mm | - | 128 W/m² | - |
| 1777464575 | 8.33° C | 84% | 1020.8 hPa | 0 mm | - | 99 W/m² | - |
| 1777464271 | 8.33° C | 84% | 1021 hPa | 0 mm | - | 102 W/m² | - |
| 1777463967 | 8.33° C | 83% | 1020.9 hPa | 0 mm | - | 103 W/m² | - |
| 1777463662 | 7.78° C | 84% | 1020.6 hPa | 0 mm | - | 117 W/m² | - |
| 1777463356 | 7.78° C | 84% | 1020.5 hPa | 0 mm | - | 105 W/m² | - |
| 1777463054 | 7.78° C | 85% | 1020.6 hPa | 0 mm | - | 92 W/m² | - |
| 1777462749 | 7.78° C | 84% | 1020.7 hPa | 0 mm | - | 95 W/m² | - |
| 1777462444 | 7.78° C | 84% | 1020.7 hPa | 0 mm | - | 90 W/m² | - |
| 1777462141 | 7.78° C | 85% | 1020.5 hPa | 0 mm | - | 94 W/m² | - |
| 1777461837 | 7.78° C | 85% | 1020.8 hPa | 0 mm | - | 76 W/m² | - |
| 1777461534 | 7.78° C | 85% | 1020.8 hPa | 0 mm | - | 75 W/m² | - |
| 1777461230 | 7.78° C | 85% | 1020.7 hPa | 0 mm | - | 72 W/m² | - |
| 1777460925 | 7.22° C | 86% | 1020.6 hPa | 0 mm | - | 69 W/m² | - |
| 1777460621 | 7.78° C | 86% | 1020.5 hPa | 0 mm | - | 59 W/m² | - |
| 1777460317 | 7.22° C | 86% | 1020.6 hPa | 0 mm | - | 54 W/m² | - |
| 1777460014 | 7.22° C | 86% | 1020.6 hPa | 0 mm | - | 50 W/m² | - |
| 1777459710 | 7.22° C | 87% | 1020.3 hPa | 0 mm | - | 46 W/m² | - |
| 1777459407 | 7.22° C | 87% | 1020.3 hPa | 0 mm | - | 41 W/m² | - |
| 1777459105 | 7.22° C | 87% | 1020.2 hPa | 0 mm | - | 32 W/m² | - |
| 1777458802 | 7.22° C | 87% | 1020.4 hPa | 0 mm | - | 30 W/m² | - |
| 1777458498 | 7.22° C | 87% | 1020.5 hPa | 0 mm | - | 25 W/m² | - |
| 1777458196 | 7.22° C | 87% | 1020.3 hPa | 0 mm | - | 20 W/m² | - |
| 1777457890 | 6.67° C | 87% | 1020.7 hPa | 0 mm | - | 17 W/m² | - |
| 1777457587 | 6.67° C | 87% | 1020.8 hPa | 0 mm | - | 13 W/m² | - |
* Rain latest hour (hover to see other rain measurements)
** Current wind speed in m/s (hover to see current wind gust speed)